Location: São Paulo
(23.5507°S, 46.6334°W)
Time: 10:10:32
(UTC-03:00)

Explorer 7 - Pass Details

Date: 19 February 2026
Orbit: 430 x 541 km, 50.2° (Epoch: 11 March)

Event Time Altitude Azimuth Distance (km) Brightness Sun altitude
Rises 11:01:45 0° 245° (WSW) 2,472 9.9 67.6°
Reaches altitude 10° 11:04:36 10° 269° (W) 1,570 9.1 68.1°
Maximum altitude 11:06:42 15° 305° (NW) 1,276 8.8 68.5°
Drops below altitude 10° 11:08:46 10° 342° (NNW) 1,536 9.3 68.9°
Sets 11:11:30 0° 6° (N) 2,384 10.3 69.4°
